This demonstration page uses our WeatherBlox Daily Observations layout. Learn more.

Left ArrowRight Arrow

Hourly Observations for May 3, 2021

Temp ( °F °C ) Dew Point ( °F °C ) Humidity (%) Winds ( mph kmh ) Pressure ( in mb ) Visibility ( mi km ) Precip ( " mm )
12:53 am 00:53 Clear 32 0 29 -1.7 88 88 S 5 7 30.14 1021 10 16 0.00 0.00
1:53 am 01:53 Clear 29 -1.7 27 -2.8 92 92 SW 6 9 30.15 1021 10 16 0.00 0.00
2:53 am 02:53 Clear 29 -1.7 27 -2.8 92 92 SW 7 11 30.15 1021 10 16 0.00 0.00
3:53 am 03:53 Mostly Cloudy 30 -1.1 28 -2.2 92 92 W 3 6 30.15 1021 10 16 0.00 0.00
4:53 am 04:53 Cloudy 31 -0.6 29 -1.7 92 92 WSW 7 11 30.16 1021 10 16 0.00 0.00
5:53 am 05:53 Mostly Cloudy 31 -0.6 29 -1.7 92 92 SW 6 9 30.17 1022 10 16 0.00 0.00
6:53 am 06:53 Sunny 33 0.6 30 -1.1 89 89 SW 8 13 30.17 1022 10 16 0.00 0.00
7:53 am 07:53 Mostly Sunny 37 2.8 32 0 82 82 SW 8 13 30.18 1022 10 16 0.00 0.00
8:53 am 08:53 Mostly Sunny 43 6.1 35 1.7 74 74 WSW 6 9 30.18 1022 10 16 0.00 0.00
9:53 am 09:53 Partly Cloudy 49 9.4 35 1.7 59 59 W 7 11 30.16 1021 10 16 0.00 0.00
10:53 am 10:53 Mostly Cloudy 53 11.7 33 0.6 47 47 SW 6 9 30.15 1021 10 16 0.00 0.00
11:53 am 11:53 Partly Cloudy 56 13.3 33 0.6 42 42 W 7 11 30.14 1021 10 16 0.00 0.00
12:53 pm 12:53 Mostly Cloudy 56 13.3 30 -1.1 37 37 W 8 13 30.12 1020 10 16 0.00 0.00
1:45 pm 13:45 Cloudy with Rain 48 8.9 37 2.8 66 66 NNW 21 33 30.10 1019 7 11 0.00 0.00
1:53 pm 13:53 Cloudy with Rain 46 7.8 38 3.3 73 73 N 17 28 30.15 1021 4 6 0.02 0.51
2:53 pm 14:53 Mostly Cloudy 51 10.6 40 4.4 66 66 ENE 10 17 30.13 1020 10 16 0.02 0.51
3:53 pm 15:53 Cloudy 51 10.6 39 3.9 64 64 SE 7 11 30.10 1019 10 16 0.00 0.00
4:53 pm 16:53 Sunny 57 13.9 35 1.7 44 44 SE 6 9 30.06 1018 10 16 0.00 0.00
5:53 pm 17:53 Partly Cloudy 56 13.3 34 1.1 44 44 ESE 5 7 30.04 1017 10 16 0.00 0.00
6:53 pm 18:53 Cloudy 55 12.8 38 3.3 53 53 ESE 9 15 30.05 1018 10 16 0.00 0.00
7:53 pm 19:53 Sunny 50 10 38 3.3 63 63 NE 14 22 30.04 1017 10 16 0.00 0.00
8:53 pm 20:53 Clear 47 8.3 38 3.3 71 71 E 9 15 30.03 1017 10 16 0.00 0.00
9:53 pm 21:53 Mostly Cloudy 47 8.3 39 3.9 74 74 E 10 17 30.02 1017 10 16 0.00 0.00
10:53 pm 22:53 Cloudy 48 8.9 38 3.3 68 68 E 12 19 30.00 1016 10 16 0.00 0.00
11:53 pm 23:53 Cloudy 49 9.4 36 2.2 61 61 E 8 13 29.98 1015 10 16 0.00 0.00

Powered by AerisWeather